Home   Weather   Tulsa   Past weeks

Flag for USA Past Weather in Tulsa, Oklahoma, USA — Yesterday and Last 2 Weeks

Now
15 °F

Clear.


Feels Like: 8 °F
Forecast: 15 / 38 °F
Wind: 5 mph from North

Location: Tulsa International Airport

Current Time: Dec 9, 2016 at 5:51:53 am

Latest Report: Dec 9, 2016 at 4:53 am


Visibility: 10 mi

Pressure: 30.71 "Hg

Humidity: 83%

Dew Point: 11 °F

Location of TulsaLocation

Past Weather in Tulsa — Graph

°F

Tulsa Temperature Yesterday

Maximum temperature yesterday: 35 °F (at 1:53 pm)
Minimum temperature yesterday: 19 °F (at 11:53 pm)
Average temperature yesterday: 26 °F

High & Low Weather Summary for the Past Weeks

 TemperatureHumidityPressure
High64 °F (Nov 28, 10:53 am)100% (Nov 24, 3:53 am)30.74 "Hg (Nov 24, 3:53 am)
Low17 °F (Dec 9, 2:53 am)23% (Nov 29, 3:53 pm)29.27 "Hg (Nov 28, 1:53 pm)
Average44 °F69%30.06 "Hg
* Reported Nov 24 3:53 am — Dec 9 3:53 am, Tulsa, Weather by CustomWeather, © 2016

Note: Actual official high and low records may vary slightly from our data, if they occured in-between our weather recording intervals... More about our weather records

Advertising

Tulsa Weather History for the Previous 24 Hours

Scroll right to see more
 ConditionsComfort  
Time TempWeatherWind HumidityBarometerVisibility
3:53 am
Fri, Dec 9
18 °FClear.No wind80%30.71 "Hg10 mi
2:53 am17 °FClear.5 mph80%30.71 "Hg10 mi
1:53 am18 °FClear.6 mph77%30.71 "Hg10 mi
12:53 am20 °FClear.5 mph71%30.69 "Hg10 mi
11:53 pm
Thu, Dec 8
19 °FPassing clouds.7 mph71%30.71 "Hg10 mi
10:53 pm21 °FPassing clouds.5 mph62%30.72 "Hg10 mi
9:53 pm21 °FClear.6 mph62%30.71 "Hg10 mi
8:53 pm23 °FClear.6 mph57%30.70 "Hg10 mi
7:53 pm22 °FClear.7 mph60%30.68 "Hg10 mi
6:53 pm25 °FPassing clouds.6 mph53%30.66 "Hg10 mi
5:53 pm28 °FPassing clouds.8 mph45%30.65 "Hg10 mi
4:53 pm31 °FPassing clouds.10 mph38%30.65 "Hg10 mi
3:53 pm35 °FPassing clouds.10 mph32%30.65 "Hg10 mi
2:53 pm35 °FPassing clouds.9 mph32%30.64 "Hg10 mi
1:53 pm35 °FPassing clouds.12 mph32%30.65 "Hg10 mi
12:53 pm33 °FPassing clouds.13 mph38%30.66 "Hg10 mi
11:53 am30 °FPassing clouds.12 mph43%30.69 "Hg10 mi
10:53 am28 °FPartly sunny.13 mph49%30.72 "Hg10 mi
9:53 am25 °FPartly sunny.15 mph58%30.70 "Hg10 mi
8:53 am23 °FPartly sunny.13 mph68%30.69 "Hg10 mi
6:53 am20 °FPassing clouds.9 mph82%30.74 "Hg10 mi
5:53 am21 °FPassing clouds.8 mph81%30.72 "Hg10 mi
Weather by CustomWeather, © 2016

See weather overviewHow to use our weather pages